ELECTRON KICK STAGE R/B, 60085

Orbit data source: Space-Track

ELECTRON KICK STAGE R/B, 60085 is space debris in SSO originally from a launch on Thu, 20 Jun 2024 UTC via an Electron launch vehicle from the Rocket Lab Launch Complex (RLLC). Debris objects in space refer to the collection of defunct objects orbiting the Earth. Examples of debris include non-operational satellites, rocket bodies, and fragments generated from explosions, collisions, or faulty payload assembly.

Loading next visibility...
Identifier
60085, 2024-114G
Orbit
SSO
Last TLE update
11 hours ago
Origin
Manufacturer
Rocket Lab
Mission
Operational spacecraft
Bus & Motor
KICK STAGE, CURIE
Mass
~50 kg wet, ~50 kg dry
Launch date (UTC)
2024-06-20 (1 year ago)
Launch vehicle
Electron
Launch site
Rocket Lab Launch Complex (RLLC)
Object type
Payload
Rocket body
Debris
Shape & HBR
Trunc Cone, 1.4 m
Radar Cross Section
0.760 m², Medium (>0.1 m² and < 1m²)

Expand to show TLE details & history

TLE from 11 hours ago
0 ELECTRON KICK STAGE R/B
1 60085U 24114G   25183.67231352  .00003857  00000-0  24240-3 0  9997
2 60085  97.9847 218.3288 0072840 206.3671 153.3842 15.07700605 56618
Epoch: 2025-07-02T16:08Z
TLE epoch observation values (Epoch: 2025-07-02T16:08:07.888Z)
Latitude
-0°
Longitude
55.34588°
Altitude
591.44 km
Speed
7.54 km/s
True Right ascension
14h 33m 18s
True Declination
0° 00' 00"
Sunlit
Object was in full shadow at epoch
Visualization orbit readout
Latitude
29.06646°
Longitude
51.38659°
Altitude
597.193 km
Speed
7.536 km/s
Apparent Right ascension
11h 37m 34s
Apparent Declination
-21° 57' 16"
Sunlit
Object is in daylight
Visualization observer readout
Local Sidereal Time
15:10:09
Azimuth
229.065° WSW
Elevation
10.763°
Doppler factor
1
Orbital elements
Apogee altitude
590.629 km
Perigee altitude
489.842 km
Semi-major axis
6,918.373 km
Eccentricity
0.00728
Inclination
97.9847°
RAAN
218.3288°
Arg. of periapsis
206.3671°
True anomaly
Unknown
Mean anomaly
153.3842°
Eccentric anomaly
Unknown
Mean motion
3.7717 °/min
Orbital period
95.45 mins
BSTAR
0.0002424
Loading maneuver chart data...
Loading SW <> Apogee altitude chart data...
Loading historical data...
Loading historical data...
Loading historical data...
Loading historical data...
Loading historical data...
Loading historical data...
Loading historical data...

ELECTRON KICK STAGE R/B Visibility forecast

Observer location: undefined°, undefined°

Span
Click to sort rows by Start time (UTC) header in descending order
Start Az.
Max El. time (UTC)
Max El. Az.
Max El.
End time (UTC)
End Az.
5 mins2025-07-03 03:24:59.087Z228.819° WSW2025-07-03 03:26:59.087Z258.07° W15.437°2025-07-03 03:29:59.087Z304.838° NW
6 mins2025-07-03 15:00:59.087Z25.077° NE2025-07-03 15:03:59.087Z133.085° SE39.182°2025-07-03 15:06:59.087Z180.735° SSW
6 mins2025-07-04 01:43:59.087Z124.35° SE2025-07-04 01:45:59.087Z85.587° E27.837°2025-07-04 01:49:59.087Z8.313° NNE
4 mins2025-07-04 03:19:59.087Z245.622° WSW2025-07-04 03:20:59.087Z264.49° W18.235°2025-07-04 03:23:59.087Z311.597° NW
|